{"data":{"norad_id":65671,"epoch":"2026-05-25T02:19:19.811712Z","epoch_age_seconds":63800,"freshness":"FRESH","line1":"1 65671U 25211V   26145.09675708  .00002358  00000+0  16742-3 0  9996","line2":"2 65671  97.4455 189.0865 0000962 117.4773 242.6552 15.05658330 38547","mean_motion":15.0565833,"eccentricity":9.62e-5,"inclination_deg":97.4455,"raan_deg":189.0865,"arg_perigee_deg":117.4773,"mean_anomaly_deg":242.6552,"bstar":0.00016742,"rev_number":3854,"period_min":95.639227792138,"perigee_km":548.81916541338,"apogee_km":550.15204000214,"semimajor_km":6927.6226027078,"source":"CELESTRAK","updated_at":"2026-05-25T13:38:20.891949Z"}}